Weather History for St. Joseph, MO

Change the Weather History Date:

Thursday, January 31, 2013

  Actual Average Record
Temperature  
Mean Temperature 12 °F 29 °F  
Max Temperature 21 °F 39 °F 71 °F (2009)
Min Temperature 2 °F 19 °F -16 °F (1979)
Degree Days  
Heating Degree Days 53 36  
Month to date heating degree days 1065 1168  
Since 1 July heating degree days 3161 3383  
Cooling Degree Days 0 0  
Month to date cooling degree days 0 0  
Year to date cooling degree days 0 0  
Moisture  
Dew Point 4 °F    
Average Humidity 69    
Maximum Humidity 80    
Minimum Humidity 58    
Precipitation  
Precipitation 0.00 in 0.02 in 0.39 in (1915)
Month to date precipitation 0.64 0.56  
Year to date precipitation 0.64 0.56  
Sea Level Pressure  
Sea Level Pressure 30.27 in    
Wind  
Wind Speed 12 mph (NW)    
Max Wind Speed 30 mph    
Max Gust Speed 38 mph    
Visibility 10 miles    
Events      
T = Trace of Precipitation, MM = Missing Value Source: NWS Daily Summary

Daily Weather History Graph

Daily Weather History Graph

Search for Another Location

Airport:

Trip Planner

Search our weather history database for the weather conditions in past years. The results will help you decide how hot, cold, wet, or windy it might be!

Date:

Astronomy

Jan. 31, 2013 Rise Set
Actual Time 7:28 AM CST 5:38 PM CST
Civil Twilight 6:59 AM CST 6:07 PM CST
Nautical Twilight 6:27 AM CST 6:39 PM CST
Astronomical Twilight 5:55 AM CST 7:11 PM CST
Moon 10:40 PM CST (1/31) 9:29 AM CST (1/31)
Length of Visible Light 11h 07m
Length of Day
10h 10m
Waning Gibbous, 79% of the Moon is Illuminated
Jan 31
Waning Gibbous
Feb 3
Last Quarter
Feb 10
New
Feb 17
First Quarter
Feb 25
Full

Hourly Weather History & Observations

Time (CST) Temp. Windchill Dew Point Humidity Pressure Visibility Wind Dir Wind Speed Gust Speed Precip Events Conditions
12:53 AM 19.0 °F 12.3 °F 12.9 °F 77% 30.00 in 10.0 mi WSW 4.6 mph - N/A   Overcast
1:53 AM 19.9 °F 14.9 °F 14.0 °F 78% 30.00 in 10.0 mi NW 3.5 mph - N/A   Overcast
2:53 AM 19.9 °F 11.1 °F 14.0 °F 78% 30.01 in 10.0 mi NW 6.9 mph - N/A   Overcast
3:53 AM 19.9 °F 13.4 °F 12.9 °F 74% 30.00 in 10.0 mi NW 4.6 mph - N/A   Overcast
5:53 AM 19.0 °F 6.8 °F 10.9 °F 71% 30.04 in 10.0 mi NW 11.5 mph - N/A   Overcast
6:53 AM 18.0 °F 3.1 °F 10.0 °F 71% 30.08 in 10.0 mi NNW 16.1 mph - N/A   Overcast
7:53 AM 15.1 °F 1.1 °F 5.0 °F 64% 30.12 in 10.0 mi NNW 12.7 mph - N/A   Mostly Cloudy
8:53 AM 14.0 °F 0.5 °F 3.0 °F 62% 30.16 in 10.0 mi NNW 11.5 mph - N/A   Overcast
9:53 AM 15.1 °F 1.1 °F 3.9 °F 61% 30.20 in 10.0 mi NW 12.7 mph - N/A   Overcast
10:53 AM 15.1 °F -1.1 °F 3.9 °F 61% 30.23 in 10.0 mi NW 17.3 mph - N/A   Overcast
11:53 AM 15.1 °F -2.5 °F 3.9 °F 61% 30.27 in 10.0 mi NW 20.7 mph 26.5 mph N/A   Overcast
12:53 PM 15.1 °F -2.9 °F 3.9 °F 61% 30.30 in 10.0 mi NNW 21.9 mph 33.4 mph N/A   Overcast
2:29 PM 12.2 °F -7.1 °F 1.4 °F 62% 30.29 in 9.0 mi NNW 23.0 mph 31.1 mph N/A   Scattered Clouds
2:53 PM 14.0 °F -3.4 °F 1.9 °F 59% 30.34 in 10.0 mi NNW 19.6 mph - N/A   Scattered Clouds
3:53 PM 12.9 °F -4.4 °F 1.0 °F 59% 30.36 in 10.0 mi NNW 18.4 mph 27.6 mph N/A   Scattered Clouds
4:53 PM 12.0 °F -4.0 °F 1.0 °F 61% 30.39 in 10.0 mi NNW 15.0 mph 21.9 mph N/A   Mostly Cloudy
5:53 PM 10.0 °F -5.9 °F -0.9 °F 61% 30.42 in 10.0 mi NW 13.8 mph - N/A   Clear
6:53 PM 9.0 °F -5.9 °F -2.0 °F 61% 30.43 in 10.0 mi NW 11.5 mph - N/A   Clear
7:53 PM 7.0 °F -4.5 °F -2.0 °F 67% 30.45 in 10.0 mi NNW 6.9 mph - N/A   Clear
8:53 PM 7.0 °F -3.3 °F -2.9 °F 64% 30.48 in 10.0 mi NW 5.8 mph - N/A   Clear
9:53 PM 6.1 °F -4.3 °F -2.9 °F 67% 30.51 in 10.0 mi West 5.8 mph - N/A   Clear
10:53 PM 5.0 °F -6.9 °F -2.9 °F 70% 30.54 in 10.0 mi WSW 6.9 mph - N/A   Clear
11:53 PM 1.9 °F -7.6 °F -5.1 °F 72% 30.53 in 10.0 mi WNW 4.6 mph - N/A   Clear